BM2MWA-13 Weather Reports


time (UTC)temp
C
wind
direction
speed
KPH
gust
KPH
rain 1hr
cm
rain 24hr
cm
rain mn
cm
humidity
%
barometer
mb
20260505041703 21 110 8.0 27.4 0.00 2.36 1.40 90 1011.8
20260505040706 21 100 9.7 24.1 0.00 2.36 1.40 91 1011.8
20260505035704 21 100 11.3 24.1 0.00 2.36 1.40 91 1011.7
20260505034703 21 100 11.3 24.1 0.10 2.36 1.40 91 1011.8
20260505033703 21 100 11.3 24.1 0.10 2.36 1.40 91 1011.8
20260505032704 20 110 8.0 24.1 0.10 2.36 1.40 93 1011.7
20260505031704 20 100 8.0 24.1 0.10 2.36 1.40 93 1011.9
20260505030703 20 110 8.0 24.1 0.10 2.36 1.40 93 1012.0
20260505025703 20 100 6.4 24.1 0.10 2.36 1.40 93 1012.2
20260505024704 20 100 8.0 24.1 0.10 2.31 1.35 92 1012.3
20260505023704 20 100 8.0 24.1 0.05 2.26 1.30 92 1012.3
20260505022704 20 100 9.7 24.1 0.10 2.26 1.30 92 1012.2
20260505021703 20 100 9.7 24.1 0.15 2.26 1.30 93 1012.2
20260505020704 20 100 8.0 22.5 0.20 2.26 1.30 94 1012.4
20260505015704 20 100 8.0 22.5 0.30 2.26 1.30 93 1012.6
20260505014703 20 90 8.0 22.5 0.41 2.21 1.24 93 1012.6
20260505013703 20 100 8.0 22.5 0.51 2.21 1.24 93 1012.7
20260505012703 20 100 9.7 22.5 0.46 2.16 1.19 93 1012.5
20260505011703 20 100 8.0 22.5 0.46 2.11 1.14 94 1012.4
20260505010704 20 110 6.4 24.1 0.46 2.06 1.09 93 1012.3
20260505005704 20 90 6.4 24.1 0.41 2.01 0.99 93 1012.5
20260505004703 20 100 8.0 24.1 0.30 1.85 0.84 93 1012.1
20260505003708 19 100 8.0 24.1 0.20 1.55 0.46 93 1012.2
20260505002704 19 70 4.8 24.1 0.25 1.75 0.76 93 1012.4
20260505001705 19 100 8.0 24.1 0.25 1.70 0.71 93 1012.0
20260505000704 19 100 8.0 19.3 0.20 1.65 0.66 93 1012.0
20260504235703 19 100 8.0 19.3 0.20 1.60 0.61 94 1011.9
20260504234703 19 100 9.7 19.3 0.15 1.60 0.56 93 1012.0
20260504233703 19 100 6.4 19.3 0.10 1.55 0.51 94 1012.0
20260504232704 19 120 6.4 19.3 0.15 1.55 0.51 93 1012.1
20260504231704 19 100 8.0 19.3 0.10 1.50 0.46 93 1011.9
20260504230704 19 110 6.4 24.1 0.20 1.55 0.46 92 1011.9
20260504225704 19 100 8.0 24.1 0.15 1.50 0.41 92 1011.8
20260504224703 19 100 6.4 24.1 0.15 1.55 0.41 93 1011.7
20260504223704 19 100 4.8 24.1 0.20 1.60 0.41 92 1011.5
20260504222705 19 100 8.0 24.1 0.20 1.70 0.36 92 1011.5
20260504221704 19 100 6.4 24.1 0.20 1.70 0.36 91 1011.3
20260504220704 18 70 8.0 27.4 0.10 1.70 0.25 93 1011.3
20260504215703 19 90 6.4 27.4 0.15 1.75 0.25 91 1011.2
20260504214704 19 100 8.0 27.4 0.15 1.75 0.25 91 1011.0
20260504213703 19 90 3.2 27.4 0.15 1.75 0.20 89 1011.0
20260504212703 19 100 6.4 27.4 0.10 1.70 0.15 89 1010.9
20260504211704 19 90 8.0 27.4 0.10 1.70 0.15 90 1010.7
20260504210703 19 100 8.0 32.2 0.10 1.70 0.15 89 1010.7
20260504205703 19 90 9.7 32.2 0.05 1.65 0.10 87 1010.7
20260504204703 19 100 9.7 32.2 0.05 1.65 0.10 85 1010.7
20260504203704 19 100 9.7 32.2 0.00 1.60 0.05 85 1010.7
20260504202703 19 100 11.3 32.2 0.00 1.60 0.05 84 1010.6
20260504201703 19 100 9.7 32.2 0.00 1.60 0.05 83 1010.6
20260504200704 19 100 9.7 33.8 0.00 1.60 0.05 83 1010.7
20260504195703 20 100 11.3 33.8 0.00 1.60 0.05 81 1010.7
20260504194703 20 100 11.3 33.8 0.00 1.60 0.05 81 1010.6
20260504193704 19 100 12.9 33.8 0.00 1.60 0.05 81 1010.7
20260504192704 19 90 11.3 33.8 0.00 1.60 0.05 81 1010.6
20260504191703 19 90 12.9 33.8 0.00 1.60 0.05 80 1010.7
20260504190703 19 100 12.9 33.8 0.00 1.60 0.05 81 1010.8
20260504185704 19 100 11.3 33.8 0.00 1.60 0.05 81 1011.0
20260504184703 19 100 12.9 33.8 0.00 1.60 0.05 82 1011.0
20260504183703 19 100 11.3 33.8 0.00 1.60 0.05 81 1011.0
20260504182703 19 100 11.3 33.8 0.00 1.60 0.05 82 1011.1
20260504181703 19 90 11.3 33.8 0.05 1.60 0.05 81 1011.3
20260504180703 19 100 12.9 30.6 0.05 1.60 0.05 81 1011.5
20260504175703 19 100 9.7 30.6 0.05 1.60 0.05 82 1011.7
20260504174704 18 100 11.3 30.6 0.05 1.60 0.05 82 1011.9
20260504173706 18 100 12.9 30.6 0.05 1.60 0.05 82 1011.9
20260504172703 19 100 12.9 30.6 0.05 1.60 0.05 80 1012.2
20260504171705 19 100 12.9 30.6 0.00 1.55 0.00 79 1012.3
20260504170703 19 100 14.5 33.8 0.00 1.55 0.00 80 1012.5
20260504150704 18 110 11.3 27.4 0.00 1.55 1.55 83 1014.7
20260504140703 17 110 9.7 25.7 0.00 1.55 1.55 87 1015.1
20260504130703 17 140 11.3 24.1 0.15 1.55 1.55 86 1015.4
20260504110703 17 140 14.5 33.8 0.41 1.04 1.04 79 1015.4
20260504081704 22 120 11.3 37.0 0.00 0.61 0.61 65 1013.2
20260504080703 22 120 14.5 40.2 0.00 0.61 0.61 66 1013.1
20260504050704 23 110 16.1 35.4 0.00 0.61 0.61 66 1013.9